GW4812 Weather Reports


Display with metric or nautical units.
time (UTC)temp
F
wind
direction
speed
MPH
gust
MPH
rain 1hr
in
rain 24hr
in
rain mn
in
humidity
%
barometer
mb
20260508062552 47 314 1.0 1.0 0.00 0.00 0.01 81 1011.0
20260508062052 47 0 0.0 0.0 0.00 0.00 0.02 81 1011.0
20260508061553 47 264 0.0 1.0 0.00 0.00 0.02 79 1011.0
20260508061052 47 0 0.0 0.0 0.00 0.00 0.02 79 1011.0
20260508060553 48 155 0.0 1.0 0.00 0.00 0.02 78 1011.0
20260508060053 48 163 0.0 1.0 0.00 0.00 0.02 78 1011.0
20260508055552 48 164 1.0 1.0 0.00 0.00 0.02 79 1012.0
20260508055052 49 341 1.0 2.0 0.00 0.00 0.01 76 1012.0
20260508054553 49 168 0.0 1.0 0.01 0.00 0.01 74 1012.0
20260508054052 50 224 0.0 0.0 0.00 0.00 0.01 72 1012.0
20260508053552 50 343 0.0 1.0 0.06 0.00 0.00 69 1012.0
20260508053053 50 277 2.0 4.0 0.02 0.00 0.00 68 1011.0
20260508052553 49 31 1.0 2.0 0.01 0.00 0.00 62 1011.0
20260508052053 49 352 0.0 0.0 0.00 0.00 0.00 66 1011.0
20260508051552 48 331 0.0 0.0 0.00 0.00 0.00 69 1011.0
20260508051052 47 325 0.0 1.0 0.00 0.00 0.00 74 1010.0
20260508050553 47 0 0.0 0.0 0.00 0.00 0.00 75 1010.0
20260508050053 47 276 0.0 1.0 0.00 0.00 0.00 75 1010.0
20260508045553 47 0 0.0 0.0 0.00 0.00 0.00 75 1010.0
20260508045054 48 224 1.0 1.0 0.00 0.00 0.00 74 1010.0
20260508044553 48 76 0.0 1.0 0.00 0.00 0.00 74 1010.0
20260508044052 48 284 0.0 0.0 0.00 0.00 0.00 75 1009.0
20260508043552 48 186 1.0 1.0 0.00 0.00 0.00 74 1009.0
20260508043054 48 184 0.0 0.0 0.00 0.00 0.00 76 1010.0
20260508042553 47 0 0.0 0.0 0.00 0.00 0.00 76 1010.0
20260508042052 47 271 0.0 0.0 0.00 0.00 0.00 75 1010.0
20260508041553 47 260 1.0 1.0 0.00 0.00 0.00 74 1010.0
20260508041053 47 206 0.0 1.0 0.00 0.00 0.00 75 1010.0
20260508040559 47 0 0.0 0.0 0.00 0.00 0.00 75 1010.0
20260508040052 47 0 0.0 0.0 0.00 0.00 0.15 75 1010.0
20260508035552 47 203 1.0 1.0 0.00 0.00 0.15 75 1010.0
20260508035053 47 318 0.0 1.0 0.00 0.00 0.15 75 1010.0
20260508034553 47 271 0.0 1.0 0.00 0.00 0.15 74 1009.0
20260508034053 47 273 1.0 1.0 0.00 0.00 0.15 74 1009.0
20260508033552 46 264 1.0 1.0 0.00 0.00 0.15 73 1009.0
20260508033052 46 0 0.0 0.0 0.00 0.00 0.15 73 1009.0
20260508032552 46 282 2.0 2.0 0.00 0.00 0.15 74 1009.0
20260508032053 46 239 1.0 1.0 0.00 0.00 0.15 75 1009.0
20260508031552 46 278 1.0 1.0 0.00 0.00 0.15 74 1010.0
20260508031052 46 127 0.0 1.0 0.00 0.00 0.15 74 1010.0
20260508030553 46 199 0.0 0.0 0.00 0.00 0.15 74 1009.0
20260508030057 46 269 0.0 0.0 0.00 0.00 0.15 74 1010.0
20260508025553 47 277 0.0 1.0 0.00 0.00 0.15 74 1010.0
20260508025054 47 267 0.0 0.0 0.00 0.00 0.15 74 1010.0
20260508024552 47 265 1.0 1.0 0.00 0.00 0.15 73 1010.0
20260508024052 47 205 0.0 0.0 0.00 0.00 0.15 72 1010.0
20260508023553 47 258 0.0 1.0 0.00 0.00 0.15 73 1010.0
20260508023053 47 0 0.0 0.0 0.00 0.00 0.15 71 1010.0
20260508022553 47 0 0.0 0.0 0.00 0.00 0.15 71 1010.0
20260508022052 47 326 1.0 1.0 0.00 0.00 0.15 71 1010.0
20260508021553 47 343 0.0 0.0 0.00 0.00 0.15 71 1010.0
20260508021052 47 319 0.0 0.0 0.00 0.00 0.15 71 1010.0
20260508020552 47 344 0.0 1.0 0.00 0.00 0.15 70 1010.0
20260508020053 47 266 0.0 1.0 0.00 0.00 0.15 70 1010.0
20260508015553 47 147 0.0 1.0 0.00 0.00 0.15 71 1009.0
20260508015058 48 260 0.0 1.0 0.00 0.00 0.15 71 1009.0
20260508014552 48 208 0.0 1.0 0.00 0.00 0.15 70 1009.0
20260508014053 48 241 0.0 1.0 0.00 0.00 0.15 70 1009.0
20260508013553 48 233 1.0 2.0 0.00 0.00 0.15 69 1009.0
20260508013053 49 257 1.0 1.0 0.00 0.00 0.15 69 1009.0
20260508012553 49 166 0.0 1.0 0.00 0.00 0.15 69 1009.0
20260508012052 49 202 1.0 2.0 0.00 0.00 0.15 69 1009.0
20260508011553 49 197 0.0 1.0 0.00 0.00 0.15 68 1009.0
20260508011053 50 221 0.0 1.0 0.00 0.00 0.15 68 1009.0
20260508010552 50 324 0.0 1.0 0.00 0.00 0.15 68 1009.0
20260508010055 50 256 0.0 1.0 0.00 0.00 0.15 67 1009.0
20260508005552 51 0 0.0 0.0 0.00 0.00 0.15 67 1009.0
20260508005052 51 238 0.0 1.0 0.00 0.00 0.15 66 1009.0
20260508004552 51 0 0.0 0.0 0.00 0.00 0.15 66 1009.0
20260508004053 52 0 0.0 0.0 0.00 0.00 0.15 65 1009.0
20260508003553 52 255 0.0 1.0 0.00 0.00 0.15 65 1009.0
20260508003053 52 287 0.0 1.0 0.00 0.00 0.15 64 1009.0
20260508002554 53 227 0.0 0.0 0.00 0.00 0.15 63 1009.0
20260508002053 53 250 0.0 0.0 0.00 0.00 0.15 60 1009.0
20260508001552 54 275 0.0 1.0 0.00 0.00 0.15 61 1009.0
20260508001053 54 0 0.0 0.0 0.00 0.00 0.15 60 1009.0
20260508000553 55 261 0.0 1.0 0.00 0.00 0.15 59 1009.0
20260508000053 55 0 0.0 0.0 0.00 0.00 0.15 57 1009.0
20260507235553 56 0 0.0 0.0 0.00 0.00 0.15 55 1009.0
20260507235052 56 249 0.0 0.0 0.00 0.00 0.15 54 1008.0
20260507234553 56 265 0.0 1.0 0.00 0.00 0.15 53 1008.0
20260507234053 57 0 0.0 0.0 0.00 0.00 0.15 51 1008.0
20260507233552 58 0 0.0 0.0 0.00 0.00 0.15 50 1008.0
20260507233053 58 0 0.0 0.0 0.00 0.00 0.15 49 1008.0
20260507232552 59 0 0.0 0.0 0.00 0.00 0.15 48 1008.0
20260507232052 59 0 0.0 0.0 0.00 0.00 0.15 47 1008.0
20260507231553 60 0 0.0 0.0 0.00 0.00 0.15 45 1008.0
20260507231052 60 174 0.0 0.0 0.00 0.00 0.15 42 1008.0
20260507230553 60 0 0.0 0.0 0.00 0.00 0.15 40 1008.0
20260507230052 60 251 0.0 0.0 0.00 0.00 0.15 41 1008.0
20260507225552 61 0 0.0 0.0 0.00 0.00 0.15 39 1008.0
20260507225052 61 231 0.0 1.0 0.00 0.00 0.15 39 1008.0
20260507224552 61 299 0.0 0.0 0.00 0.00 0.15 39 1008.0
20260507224053 62 176 0.0 2.0 0.00 0.00 0.15 37 1008.0
20260507223553 62 0 0.0 0.0 0.00 0.00 0.15 37 1008.0
20260507223053 62 0 0.0 0.0 0.00 0.00 0.15 37 1008.0
20260507222553 62 123 1.0 2.0 0.00 0.00 0.15 38 1008.0
20260507222057 62 227 0.0 1.0 0.00 0.00 0.15 36 1008.0
20260507221554 62 0 0.0 0.0 0.00 0.00 0.15 37 1008.0
20260507221052 62 126 1.0 3.0 0.00 0.00 0.15 36 1008.0
20260507220552 61 161 0.0 1.0 0.00 0.00 0.15 37 1008.0
20260507220054 61 0 0.0 0.0 0.00 0.00 0.15 37 1008.0
20260507215552 61 120 0.0 0.0 0.00 0.00 0.15 37 1008.0
20260507215054 61 280 1.0 2.0 0.00 0.00 0.15 37 1008.0
20260507214553 61 183 0.0 2.0 0.00 0.00 0.15 36 1008.0
20260507214053 62 253 0.0 1.0 0.00 0.00 0.15 36 1008.0
20260507213552 61 201 1.0 3.0 0.00 0.00 0.15 37 1008.0
20260507213052 61 51 2.0 3.0 0.00 0.00 0.15 38 1008.0
20260507212552 62 255 1.0 2.0 0.00 0.00 0.15 37 1008.0
20260507212052 62 135 0.0 1.0 0.00 0.00 0.15 36 1008.0
20260507211552 63 291 1.0 2.0 0.00 0.00 0.15 36 1008.0
20260507211052 63 200 0.0 2.0 0.00 0.00 0.15 35 1008.0
20260507210553 63 338 0.0 2.0 0.00 0.00 0.15 38 1008.0
20260507210052 63 338 2.0 3.0 0.00 0.00 0.15 36 1008.0
20260507205553 63 154 0.0 2.0 0.00 0.00 0.15 36 1008.0
20260507205053 64 318 1.0 2.0 0.00 0.00 0.15 37 1008.0
20260507204552 64 248 2.0 4.0 0.00 0.00 0.15 35 1008.0
20260507204052 65 94 3.0 4.0 0.00 0.00 0.15 35 1008.0
20260507203553 65 355 0.0 2.0 0.00 0.00 0.15 36 1008.0
20260507203052 65 4 1.0 4.0 0.00 0.00 0.15 35 1008.0
20260507202553 65 246 3.0 4.0 0.00 0.00 0.15 34 1008.0
20260507202052 65 240 1.0 3.0 0.00 0.00 0.15 35 1008.0
20260507201552 65 345 2.0 3.0 0.00 0.00 0.15 34 1008.0
20260507201052 65 67 1.0 3.0 0.00 0.00 0.15 36 1008.0
20260507200553 65 288 2.0 5.0 0.00 0.00 0.15 36 1008.0
20260507200053 65 352 1.0 3.0 0.00 0.00 0.15 36 1008.0
20260507195552 64 0 1.0 3.0 0.00 0.00 0.15 34 1008.0
20260507195053 64 184 1.0 3.0 0.00 0.00 0.15 35 1008.0
20260507194552 64 71 2.0 4.0 0.00 0.00 0.15 37 1008.0
20260507194053 64 116 2.0 5.0 0.00 0.00 0.15 35 1008.0
20260507193553 64 310 1.0 3.0 0.00 0.00 0.15 37 1008.0
20260507193053 64 64 2.0 4.0 0.00 0.00 0.15 35 1008.0
20260507192552 64 19 0.0 1.0 0.00 0.00 0.15 39 1008.0
20260507192052 63 162 2.0 4.0 0.00 0.00 0.15 38 1008.0
20260507191555 64 341 2.0 4.0 0.00 0.00 0.15 37 1008.0
20260507191053 63 308 1.0 3.0 0.00 0.00 0.15 38 1008.0
20260507190552 63 175 1.0 2.0 0.00 0.00 0.15 36 1008.0
20260507190052 63 70 0.0 2.0 0.00 0.00 0.15 39 1008.0
20260507185552 62 207 2.0 5.0 0.00 0.00 0.15 38 1008.0
20260507185053 62 213 2.0 3.0 0.00 0.00 0.15 37 1008.0
20260507184553 62 358 1.0 2.0 0.00 0.00 0.15 41 1009.0
20260507184052 62 284 1.0 2.0 0.00 0.00 0.15 38 1009.0
20260507183552 62 21 2.0 3.0 0.00 0.00 0.15 40 1009.0
20260507183052 62 347 1.0 3.0 0.00 0.00 0.15 40 1009.0
20260507182552 62 19 1.0 2.0 0.00 0.00 0.15 40 1009.0
20260507182053 62 56 2.0 3.0 0.00 0.00 0.15 41 1009.0
20260507181553 62 210 3.0 5.0 0.00 0.00 0.15 38 1009.0
20260507181053 62 217 2.0 3.0 0.00 0.00 0.15 39 1009.0
20260507180553 62 106 0.0 2.0 0.00 0.00 0.15 40 1009.0
20260507180053 62 278 2.0 4.0 0.00 0.00 0.15 39 1009.0
20260507175553 62 42 2.0 4.0 0.00 0.00 0.15 39 1009.0
20260507175054 61 209 1.0 3.0 0.00 0.00 0.15 39 1009.0
20260507174552 61 144 0.0 4.0 0.00 0.00 0.15 40 1009.0
20260507174053 61 23 2.0 3.0 0.00 0.00 0.15 40 1009.0
20260507173553 60 186 0.0 0.0 0.00 0.00 0.15 41 1009.0
20260507173052 61 118 1.0 3.0 0.00 0.00 0.15 38 1010.0
20260507172552 60 60 0.0 2.0 0.00 0.00 0.15 40 1010.0
20260507172053 60 7 1.0 3.0 0.00 0.00 0.15 41 1010.0
20260507171552 60 219 2.0 3.0 0.00 0.00 0.15 40 1010.0
20260507171053 60 358 2.0 4.0 0.00 0.00 0.15 38 1010.0
20260507170553 60 104 2.0 4.0 0.00 0.00 0.15 40 1010.0
20260507170052 60 166 1.0 3.0 0.00 0.00 0.15 41 1010.0
20260507165552 60 16 1.0 4.0 0.00 0.00 0.15 40 1010.0
20260507165052 60 330 2.0 3.0 0.00 0.00 0.15 40 1010.0
20260507164552 59 75 1.0 3.0 0.00 0.00 0.15 41 1010.0
20260507164053 59 348 2.0 4.0 0.00 0.00 0.15 40 1010.0
20260507163553 59 351 1.0 3.0 0.00 0.00 0.15 41 1010.0
20260507163052 59 32 2.0 3.0 0.00 0.00 0.15 41 1010.0
20260507162553 59 189 1.0 3.0 0.00 0.00 0.15 40 1010.0
20260507162053 59 13 1.0 2.0 0.00 0.00 0.15 42 1010.0
20260507161553 58 274 0.0 2.0 0.00 0.00 0.15 45 1010.0
20260507161053 58 169 4.0 6.0 0.00 0.00 0.15 41 1010.0
20260507160553 58 356 1.0 2.0 0.00 0.00 0.15 43 1011.0
20260507160052 58 251 2.0 3.0 0.00 0.00 0.15 42 1011.0
20260507155553 58 29 1.0 2.0 0.00 0.00 0.15 43 1011.0
20260507155053 57 233 1.0 2.0 0.00 0.00 0.15 45 1011.0
20260507154553 57 292 2.0 4.0 0.00 0.00 0.15 47 1011.0
20260507154053 57 211 1.0 3.0 0.00 0.00 0.15 46 1011.0
20260507153552 57 263 2.0 6.0 0.00 0.00 0.15 45 1011.0
20260507153053 57 254 2.0 3.0 0.00 0.00 0.15 44 1011.0
20260507152552 57 31 1.0 2.0 0.00 0.00 0.15 45 1011.0
20260507152053 57 275 0.0 1.0 0.00 0.00 0.15 46 1011.0
20260507151552 57 156 2.0 4.0 0.00 0.00 0.15 46 1011.0
20260507151053 57 139 1.0 2.0 0.00 0.00 0.15 47 1011.0
20260507150553 56 82 1.0 3.0 0.00 0.00 0.15 48 1011.0
20260507150053 56 140 2.0 5.0 0.00 0.00 0.15 47 1011.0
20260507145553 56 116 1.0 2.0 0.00 0.00 0.15 43 1011.0
20260507145055 56 327 0.0 1.0 0.00 0.00 0.15 46 1012.0
20260507144553 56 293 2.0 5.0 0.00 0.00 0.15 45 1011.0
20260507144053 56 316 2.0 3.0 0.00 0.00 0.15 45 1012.0
20260507143553 56 180 1.0 3.0 0.00 0.00 0.15 46 1012.0
20260507143054 55 9 1.0 2.0 0.00 0.00 0.15 48 1012.0
20260507142553 55 87 1.0 4.0 0.00 0.00 0.15 49 1012.0
20260507142053 55 7 2.0 4.0 0.00 0.00 0.15 51 1012.0
20260507141552 55 214 1.0 3.0 0.00 0.00 0.15 53 1012.0
20260507141053 55 354 2.0 4.0 0.00 0.00 0.15 52 1012.0
20260507140552 55 258 1.0 2.0 0.00 0.00 0.15 56 1012.0
20260507140056 55 163 1.0 3.0 0.00 0.00 0.15 56 1012.0
20260507135553 54 79 0.0 2.0 0.00 0.00 0.15 58 1012.0
20260507135052 54 45 1.0 3.0 0.00 0.00 0.15 56 1012.0
20260507134553 54 315 2.0 3.0 0.00 0.00 0.15 57 1012.0
20260507134053 53 21 1.0 3.0 0.00 0.00 0.15 59 1012.0
20260507133552 53 21 1.0 2.0 0.00 0.00 0.15 59 1012.0
20260507133052 53 288 2.0 4.0 0.00 0.00 0.15 60 1012.0
20260507132552 53 17 1.0 2.0 0.00 0.00 0.15 65 1012.0
20260507132054 53 264 2.0 2.0 0.00 0.00 0.15 64 1012.0
20260507131553 53 234 0.0 2.0 0.00 0.00 0.15 64 1012.0
20260507131053 53 315 1.0 2.0 0.00 0.00 0.15 64 1012.0
20260507130552 53 210 0.0 1.0 0.00 0.00 0.15 65 1012.0
20260507130052 53 211 1.0 2.0 0.00 0.00 0.15 68 1012.0
20260507125553 53 262 1.0 2.0 0.00 0.00 0.15 68 1012.0
20260507125053 52 252 1.0 4.0 0.00 0.00 0.15 72 1012.0
20260507124553 52 239 1.0 2.0 0.00 0.00 0.15 73 1012.0
20260507124052 51 4 1.0 2.0 0.00 0.00 0.15 74 1012.0
20260507123552 51 241 3.0 4.0 0.00 0.00 0.15 72 1012.0
20260507123053 51 240 0.0 1.0 0.00 0.00 0.15 77 1012.0
20260507122554 50 257 2.0 3.0 0.00 0.00 0.15 80 1012.0
20260507122052 49 166 1.0 2.0 0.00 0.00 0.15 82 1012.0
20260507121553 48 225 1.0 1.0 0.00 0.00 0.15 88 1012.0
20260507121053 48 226 2.0 2.0 0.00 0.00 0.15 88 1012.0
20260507120553 48 0 0.0 0.0 0.00 0.00 0.15 90 1012.0
20260507120053 48 189 1.0 1.0 0.00 0.00 0.15 90 1012.0
20260507115553 48 267 0.0 1.0 0.00 0.00 0.15 91 1012.0
20260507115052 48 216 1.0 2.0 0.00 0.00 0.15 91 1012.0
20260507114553 47 156 0.0 1.0 0.00 0.00 0.15 91 1012.0
20260507114053 47 232 0.0 2.0 0.00 0.00 0.15 91 1012.0
20260507113552 47 280 1.0 2.0 0.00 0.00 0.15 92 1012.0
20260507113053 47 210 1.0 2.0 0.00 0.00 0.15 92 1011.0
20260507112553 47 242 2.0 2.0 0.00 0.00 0.15 92 1011.0
20260507112052 47 243 2.0 2.0 0.00 0.00 0.15 93 1011.0
20260507111552 47 225 0.0 0.0 0.00 0.00 0.15 93 1011.0
20260507111053 47 256 2.0 2.0 0.00 0.00 0.15 93 1011.0
20260507110552 47 254 0.0 1.0 0.00 0.00 0.15 94 1011.0
20260507110053 48 233 0.0 1.0 0.00 0.00 0.15 94 1011.0
20260507105552 48 262 2.0 2.0 0.00 0.00 0.15 94 1011.0
20260507105052 48 244 1.0 1.0 0.00 0.00 0.15 94 1011.0
20260507104552 48 207 0.0 1.0 0.00 0.00 0.15 94 1011.0
20260507104052 48 259 0.0 0.0 0.00 0.00 0.15 94 1011.0
20260507103552 48 243 2.0 2.0 0.00 0.00 0.15 94 1011.0
20260507103052 48 252 1.0 2.0 0.00 0.00 0.15 94 1011.0
20260507102553 48 273 1.0 1.0 0.00 0.00 0.15 94 1011.0
20260507102053 48 215 1.0 1.0 0.00 0.00 0.15 94 1011.0
20260507101553 48 257 0.0 1.0 0.00 0.00 0.15 94 1011.0
20260507101053 48 256 1.0 1.0 0.00 0.00 0.15 94 1010.0
20260507100553 48 265 0.0 0.0 0.00 0.00 0.15 94 1010.0
20260507100053 48 259 1.0 2.0 0.00 0.00 0.15 94 1010.0
20260507095553 48 204 0.0 0.0 0.00 0.00 0.15 94 1010.0
20260507095052 48 255 1.0 2.0 0.00 0.00 0.15 94 1010.0
20260507094553 48 254 0.0 0.0 0.00 0.00 0.15 94 1010.0
20260507094052 48 223 0.0 1.0 0.00 0.00 0.15 94 1010.0
20260507093553 48 276 0.0 1.0 0.00 0.00 0.15 94 1010.0
20260507093053 48 285 0.0 0.0 0.00 0.00 0.15 94 1010.0
20260507092552 48 199 0.0 1.0 0.00 0.00 0.15 93 1010.0
20260507092053 48 239 0.0 0.0 0.00 0.00 0.15 93 1010.0
20260507091553 48 256 0.0 0.0 0.00 0.00 0.15 93 1010.0
20260507091052 48 257 0.0 1.0 0.00 0.00 0.15 93 1010.0
20260507090553 48 226 1.0 1.0 0.00 0.00 0.15 93 1010.0
20260507090053 48 193 0.0 0.0 0.00 0.00 0.15 93 1010.0
20260507085552 48 0 0.0 0.0 0.00 0.00 0.15 93 1010.0
20260507085053 48 179 0.0 0.0 0.00 0.00 0.15 93 1010.0
20260507084552 48 162 0.0 0.0 0.00 0.00 0.15 93 1010.0
20260507084053 48 197 0.0 1.0 0.00 0.00 0.15 93 1010.0
20260507083552 48 267 0.0 0.0 0.00 0.00 0.15 93 1010.0
20260507083053 48 252 1.0 1.0 0.00 0.00 0.15 93 1010.0
20260507082554 49 172 0.0 0.0 0.00 0.00 0.15 93 1010.0
20260507082052 49 214 0.0 1.0 0.00 0.00 0.16 93 1010.0
20260507081553 49 182 0.0 0.0 0.00 0.00 0.16 93 1010.0
20260507081053 49 229 1.0 2.0 0.00 0.00 0.16 93 1010.0
20260507080553 49 206 0.0 1.0 0.00 0.00 0.16 93 1010.0
20260507080053 49 210 1.0 1.0 0.00 0.00 0.16 93 1010.0
20260507075554 49 213 0.0 0.0 0.00 0.00 0.16 93 1010.0
20260507075052 49 170 0.0 0.0 0.02 0.00 0.15 93 1010.0
20260507074553 49 178 1.0 1.0 0.00 0.00 0.15 93 1010.0
20260507074053 49 0 0.0 0.0 0.01 0.00 0.14 93 1010.0
20260507073553 49 247 1.0 1.0 0.04 0.00 0.15 93 1011.0
20260507073053 49 261 1.0 2.0 0.14 0.00 0.14 93 1010.0
20260507072553 49 241 0.0 1.0 0.01 0.00 0.14 92 1011.0
20260507072053 49 247 0.0 1.0 0.15 0.00 0.14 92 1011.0
20260507071552 49 231 1.0 1.0 0.09 0.00 0.13 92 1010.0
20260507071052 49 182 1.0 1.0 0.00 0.00 0.12 92 1011.0
20260507070552 49 0 0.0 0.0 0.09 0.00 0.11 92 1010.0
20260507070052 49 0 0.0 0.0 0.02 0.00 0.10 91 1010.0
20260507065552 49 234 0.0 1.0 0.06 0.00 0.10 91 1010.0
20260507065052 49 249 1.0 2.0 0.13 0.00 0.10 91 1011.0
20260507064553 49 200 0.0 1.0 0.03 0.00 0.09 90 1010.0
20260507064053 49 296 0.0 0.0 0.03 0.00 0.09 90 1011.0
20260507063553 50 140 1.0 2.0 0.11 0.00 0.08 90 1010.0
20260507063054 50 244 0.0 1.0 0.03 0.00 0.07 90 1011.0